Regional Weather Roundup
Issued by NWS Wilmington, NC

Home | Current Version | Previous Version | Text Only | Print | Product List | Glossary On
Versions: 1 2 3 4 5 6 7 8 9 10 11 12 13 14 15 16 17 18 19 20 21 22 23 24 25 26 27 28 29 30 31 32 33 34 35 36 37 38 39 40 41 42 43 44 45 46 47 48 49 50
624
ASUS42 KILM 292212
RWRILM
RWRILM
REGIONAL HOURLY WEATHER ROUNDUP
NATIONAL WEATHER SERVICE WILMINGTON NC
600 PM EDT WED MAR 29 2017

NOTE: "FAIR" INDICATES FEW OR NO CLOUDS BELOW 12,000 FEET WITH NO
SIGNIFICANT WEATHER AND/OR OBSTRUCTIONS TO VISIBILITY.

...............WFO WILMINGTON COUNTY WARNING AREA...............

......COASTAL NC AND SC COUNTIES......

CITY           SKY/WX    TMP DP  RH WIND       PRES   REMARKS
WILMINGTON     SUNNY     66  55  67 E10       30.04R
N MYRTLE BEACH SUNNY     64  58  80 E16G23    30.03R
MYRTLE BEACH   SUNNY     64  57  77 E17G23    30.04R

......INLAND NC AND SC COUNTIES.......

CITY           SKY/WX    TMP DP  RH WIND       PRES   REMARKS
LUMBERTON      SUNNY     76  55  48 NE5G24    30.00S
ELIZABETHTOWN  MOSUNNY   75  56  50 CALM      30.02S
WHITEVILLE     CLOUDY    73  59  61 SE7       30.01R
FLORENCE       MOSUNNY   80  53  39 NE6       30.00R
DARLINGTON     SUNNY     80  54  40 E5        30.01S
KINGSTREE      FAIR      82  45  26 CALM      29.98S
HARTSVILLE     FAIR      77  50  38 E5        30.00R
BENNETTSVILLE  FAIR      79  55  44 NE3       30.01R
CONWAY         FAIR      70  55  60 E9        30.02R HAZE
GEORGETOWN     FAIR      66  61  82 E12       30.04R
MARION         FAIR      77  54  44 NE7       30.00S

....................REST OF NORTH CAROLINA......................

.........EASTERN NC.........

CITY           SKY/WX    TMP DP  RH WIND       PRES   REMARKS
CAPE HATTERAS  SUNNY     57  46  66 NE13G21   30.09R
JACKSONVILLE   CLOUDY    70  56  61 NE10      30.05S
MOREHEAD CITY  SUNNY     66  53  63 NE7       30.07R
KENANSVILLE    NOT AVBL
NEW BERN       CLOUDY    64  54  69 E5        30.07S
ELIZABETH CITY SUNNY     56  47  71 E10       30.10R

.........CENTRAL NC.........

CITY           SKY/WX    TMP DP  RH WIND       PRES   REMARKS
RALEIGH DURHAM PTSUNNY   70  50  49 SE3       30.04F
ROCKY MOUNT    PTSUNNY   70  53  54 VRB3      30.05S
ROANOKE RAPIDS NOT AVBL
FAYETTEVILLE   SUNNY     75  55  49 NE9       30.02S
HOFFMAN        MOSUNNY   74  55  50 E9        30.02R

.........WESTERN NC.........

CITY           SKY/WX    TMP DP  RH WIND       PRES   REMARKS
CHARLOTTE      PTSUNNY   78  47  33 VRB3      30.02S
GREENSBORO     PTSUNNY   73  50  44 CALM      30.04R
HICKORY        NOT AVBL
BOONE          NOT AVBL
ASHEVILLE      NOT AVBL

.....................REST OF SOUTH CAROLINA.....................

.........EASTERN SC.........

CITY           SKY/WX    TMP DP  RH WIND       PRES   REMARKS
CHARLESTON     MOSUNNY   77  56  48 SE13      29.99S
BEAUFORT MCAS  MOSUNNY   78  63  59 SE7       29.98S
HILTON HEAD    SUNNY     70  59  68 SE5       30.00F

.........CENTRAL SC.........

CITY           SKY/WX    TMP DP  RH WIND       PRES   REMARKS
COLUMBIA       MOSUNNY   83  50  31 NW8       29.99R
ORANGEBURG     SUNNY     84  46  26 N5        29.98S
SUMTER SHAW    SUNNY     82  50  32 N8        29.97S

.........WESTERN SC.........

CITY           SKY/WX    TMP DP  RH WIND       PRES   REMARKS
GREENVILLE     NOT AVBL
ROCK HILL      SUNNY     77  49  37 E5        30.02S
ANDERSON       SUNNY     79  51  37 S9        29.99F
CLEMSON        NOT AVBL
GREENWOOD      SUNNY     81  47  30 W6        30.01F


...................COASTAL AND OFFSHORE REPORTS..................

................LOCAL PIERS AND NC RESERVE................


STATION/POSITION TIME  SKY/WX   TEMP    WIND        PRES    VSBY
                                AIR SEA DIR/SP/G
                 (UTC)          (F)     (DEG/KT/KT) (MB)    (MI)
JOHNY MRCER PIER 2148            61 62  100/  9/ 10 1016.5R
NC RESRV MASNBRO 2045            66     120/  5     1016.0
OCEAN CREST PIER NOT AVBL
SPRINGMAID  PIER 2148                               1016.4R


................COASTAL AND OFFSHORE BUOYS................


STATION/POSITION TIME  SKY/WX   TEMP    WIND        PRES    VSBY
                                AIR SEA DIR/SP/G
                 (UTC)          (F)     (DEG/KT/KT) (MB)    (MI)
DIMNDSHOAL 41025 2150            57 74   20/ 19/ 23 1018.3
WVE H/P(F/S)=  6/10 SWL H/P/D(F/S/D)=  3/150/10

CAPE LOOKOUT     2200            60      40/ 16/ 17 1018.1R
ONSLOW BAY 41036 NOT AVBL
ONSLOW BAY 41064 2108            61      70/ 16/ 19 1017.8R
ONSLOW BAY 41159 2143               64                N/A
WVE H/P(F/S)=  6/10 SWL H/P/D(F/S/D)=  2/130/11

MASNBO INL 41110 2159               59                N/A
WVE H/P(F/S)=  4/ 9 SWL H/P/D(F/S/D)=  2/130/11

WILM HARBR 41108 2117               60                N/A
WVE H/P(F/S)=  4/ 9 SWL H/P/D(F/S/D)=  2/150/11

27SE WRITB 41037 2108            64 74   90/ 16/ 23 1016.9R
FRYING PAN 41013 2150            66 74   60/ 17/ 21 1016.9R
WVE H/P(F/S)=  5/10 SWL H/P/D(F/S/D)=  3/150/10

SUNST NRSH 41024 NOT AVBL
CAPRS NRSH 41029 NOT AVBL
EDISTO     41004 2050            70 71   50/ 10/ 12 1015.4
WVE H/P(F/S)=  4/11 SWL H/P/D(F/S/D)=  3/120/11



..........OFFSHORE BUOYS BEYOND 100 NM OFFSHORE...........
.....IN A TRIANGLE---HAT TO BERMUDA TO BAHAMAS TO HAT.....


STATION/POSITION TIME  SKY/WX   TEMP    WIND        PRES    VSBY
                                AIR SEA DIR/SP/G
                 (UTC)          (F)     (DEG/KT/KT) (MB)    (MI)
150E HAT   41001 NOT AVBL
W BERMUDA  41048 2150            69 69  240/ 14/ 17 1012.4R
WVE H/P(F/S)=  6/10 SWL H/P/D(F/S/D)=  5/ 90/10

ATLANTIC S 41049 2150            71 72  330/ 17/ 21 1012.3R
WVE H/P(F/S)= 12/11 SWL H/P/D(F/S/D)= 10/ 10/11

E BAHAMAS  41046 NOT AVBL
NE BAHAMAS 41047 2150            72 72  300/ 12/ 16 1015.4F
WVE H/P(F/S)=  5/ 9 SWL H/P/D(F/S/D)=  5/ 90/ 9

120E CANVRL41010 NOT AVBL

END




USA.gov is the U.S. government's official web portal to all federal, state and local government web resources and services.